Change the Weather History Date:

Saturday, February 1, 2014

  Actual Average Record
Temperature  
Mean Temperature 69 °F -  
Max Temperature 74 °F 77 °F - ()
Min Temperature 64 °F 58 °F - ()
Cooling Degree Days 4    
Growing Degree Days 19 (Base 50)    
Moisture  
Dew Point 60 °F    
Average Humidity 71    
Maximum Humidity 88    
Minimum Humidity 48    
Precipitation  
Precipitation 0.00 in 0.03 in - ()
Sea Level Pressure  
Sea Level Pressure 29.99 in    
Wind  
Wind Speed 5 mph ()    
Max Wind Speed 13 mph    
Max Gust Speed -    
Visibility 5.6 miles    
Events      
T = Trace of Precipitation, MM = Missing Value Source: Averaged Metar Reports

Daily Weather History Graph

Daily Weather History Graph

Search for Another Location

Airport or City:

Trip Planner

Search our weather history database for the weather conditions in past years. The results will help you decide how hot, cold, wet, or windy it might be!

Date:

Astronomy

Feb. 01, 2014 Rise Set
Actual Time 7:04 AM GST 6:07 PM GST
Civil Twilight 6:40 AM GST 6:31 PM GST
Nautical Twilight 6:13 AM GST 6:58 PM GST
Astronomical Twilight 5:46 AM GST 7:25 PM GST
Moon 7:53 AM GST (2/1) 7:56 PM GST (2/1)
Length of Visible Light 11h 51m
Length of Day
11h 03m
Waxing Crescent, 3% of the Moon is Illuminated
Feb 1
Waxing Crescent
Feb 6
First Quarter
Feb 15
Full
Feb 22
Last Quarter
Mar 1
New

Hourly Weather History & Observations

Time (GST) Temp. Dew Point Humidity Pressure Visibility Wind Dir Wind Speed Gust Speed Precip Events Conditions
12:00 AM 68.0 °F 64.4 °F 88% 30.01 in 4.3 mi West 6.9 mph - N/A   Partly Cloudy
1:00 AM 67 °F 63 °F 81% 29.99 in 5 mi West 4.6 mph - -   Haze
1:00 AM 68.0 °F 62.6 °F 83% 29.98 in 5.0 mi West 4.6 mph - N/A   Scattered Clouds
2:00 AM 66.2 °F 62.6 °F 88% 29.98 in 5.0 mi Variable 1.2 mph - N/A   Partly Cloudy
3:00 AM 66.2 °F 62.6 °F 88% 29.98 in 4.3 mi West 3.5 mph - N/A   Partly Cloudy
4:00 AM 66 °F 62 °F 84% 29.97 in 5 mi WNW 3.5 mph - -   Haze
4:00 AM 66.2 °F 62.6 °F 88% 29.95 in 5.0 mi WNW 3.5 mph - N/A   Scattered Clouds
5:00 AM 66.2 °F 60.8 °F 83% 29.98 in 5.0 mi WNW 4.6 mph - N/A   Scattered Clouds
6:00 AM 64.4 °F 60.8 °F 88% 29.98 in 5.6 mi WNW 3.5 mph - N/A   Unknown
7:00 AM 66.2 °F 60.8 °F 83% 29.98 in 5.6 mi Variable 2.3 mph - N/A   Unknown
8:00 AM 66.2 °F 60.8 °F 83% 30.01 in 5.6 mi West 3.5 mph - N/A   Partly Cloudy
9:00 AM 69.8 °F 60.8 °F 73% 30.04 in 6.2 mi Variable 2.3 mph - N/A   Scattered Clouds
10:00 AM 70 °F 59 °F 60% 30.06 in 6 mi NW 6.9 mph - -   Partly Cloudy
10:00 AM 69.8 °F 59.0 °F 68% 30.04 in 6.2 mi NW 6.9 mph - N/A   Scattered Clouds
11:00 AM 71.6 °F 59.0 °F 64% 30.04 in 6.2 mi NW 8.1 mph - N/A   Scattered Clouds
12:00 PM 73.4 °F 57.2 °F 57% 30.01 in 6.2 mi WNW 6.9 mph - N/A   Partly Cloudy
1:00 PM 74 °F 58 °F 48% 30.00 in 6 mi NNW 9.2 mph - -   Scattered Clouds
1:00 PM 73.4 °F 59.0 °F 61% 29.98 in 6.2 mi NNW 9.2 mph - N/A   Partly Cloudy
2:00 PM 73.4 °F 59.0 °F 61% 29.98 in 6.2 mi North 11.5 mph - N/A   Partly Cloudy
3:00 PM 73.4 °F 59.0 °F 61% 29.98 in 6.2 mi NW 12.7 mph - N/A   Partly Cloudy
4:00 PM 72 °F 58 °F 52% 29.97 in 6 mi NW 11.5 mph - -   Scattered Clouds
4:00 PM 71.6 °F 57.2 °F 60% 29.95 in 6.2 mi NW 11.5 mph - N/A   Partly Cloudy
5:00 PM 71.6 °F 59.0 °F 64% 29.98 in - NNW 9.2 mph - N/A   Clear
6:00 PM 69.8 °F 59.0 °F 68% 29.98 in - NNW 5.8 mph - N/A   Clear
7:00 PM 69 °F 59 °F 61% 29.98 in 6 mi NNW 4.6 mph - -   Scattered Clouds
7:00 PM 69.8 °F 59.0 °F 68% 29.98 in - NNW 4.6 mph - N/A   Clear
8:00 PM 69.8 °F 57.2 °F 64% 29.98 in - NW 6.9 mph - N/A   Clear
9:00 PM 68.0 °F 57.2 °F 68% 29.98 in - West 6.9 mph - N/A   Clear
10:00 PM 68 °F 58 °F 63% 30.01 in 6 mi West 6.9 mph - -   Scattered Clouds
10:00 PM 68.0 °F 59.0 °F 73% 30.01 in - West 6.9 mph - N/A   Clear
11:00 PM 68.0 °F 59.0 °F 73% 29.98 in - West 5.8 mph - N/A   Clear